Regional Weather Roundup
Issued by NWS Wakefield, VA

Home | Current Version | Previous Version | Text Only | Print | Product List | Glossary Off
Versions: 1 2 3 4 5 6 7 8 9 10 11 12 13 14 15 16 17 18 19 20 21 22 23 24 25 26 27 28 29 30 31 32 33 34 35 36 37 38 39 40 41 42 43 44 45 46 47 48 49 50

000
ASUS41 KAKQ 261415
RWRAKQ

REGIONAL WEATHER ROUNDUP
NATIONAL WEATHER SERVICE WAKEFIELD VA
1000 AM EDT FRI AUG 26 2016

Note: "fair" indicates few or no clouds below 12,000 feet with no
significant weather and/or obstructions to visibility. * = Denotes
station may not report precipitation (e.g., rain,snow,etc.),
thunder or fog.

VAZ042-051-052>054-056-261500-
NORTHERN VIRGINIA

CITY           SKY/WX    TMP DP  RH WIND       PRES   REMARKS
WASH NATIONAL  MOSUNNY   89  72  56 N9        30.07S HX  96
DULLES         SUNNY     88  70  55 NW8       30.08S
FORT BELVOIR   SUNNY     89  72  55 NW5       30.07S HX  96
QUANTICO       MOSUNNY   84  77  79 S5        30.08S
FREDERICKSBRG* SUNNY     86  76  70 CALM      30.07S HX  96
STAFFORD*      SUNNY     88  71  57 N7        30.12S
WARRENTON      SUNNY     88  71  58 CALM      30.09S
CULPEPER*      SUNNY     86  77  74 CALM      30.10S HX  96
MANASSAS*      SUNNY     86  75  70 CALM      30.08F HX  95
LEESBURG*      SUNNY     88  75  66 NW10G17   30.09S HX  97
WINCHESTER     SUNNY     86  72  62 NW7       30.10S
FRONT ROYAL*   FAIR      82  73  74 SW3       30.10S
LURAY*         FAIR      81  73  78 CALM      30.13S
$$

VAZ048-049-060>072-079>083-261500-
CENTRAL AND SOUTH CENTRAL VIRGINIA

CITY           SKY/WX    TMP DP  RH WIND       PRES   REMARKS
RICHMOND       PTSUNNY   86  72  62 NE3       30.08S
CHESTERFIELD*  FAIR      86  64  48 N6        30.10R
PETERSBURG*    MOSUNNY   87  73  63 CALM      30.09S
HANOVER        SUNNY     85  73  67 CALM      30.10S
TAPPAHANNOCK*  SUNNY     84  75  74 E3        30.09R
QUINTON*       FAIR      82  74  77 CALM      30.08S
CHARLOTTSVILLE SUNNY     86  74  67 VRB3      30.11S
GORDONSVILLE*  FAIR      88  75  66 CALM      30.10R HX  97
ORANGE*          N/A     88  73  62 CALM      30.11S HX  96
LOUISA*        SUNNY     90  77  66 N3        30.09S HX 102
BUMPASS*       FAIR      84  76  77 CALM      30.10R
FARMVILLE*     SUNNY     87  75  66 CALM      30.09S HX  97
CREWE*         FAIR      86  75  69 NW3       30.10R HX  95
FORT PICKETT*  FAIR      86  75  70 N3        30.10S HX  95
CHASE CITY*    FAIR      84  75  73 N3        30.11R
CLARKSVILLE*   FAIR      82  73  74 CALM      30.09S
SOUTH HILL*    SUNNY     84  75  74 CALM      30.15S
LAWRENCEVILLE* FAIR      85  74  71 CALM      30.09S
EMPORIA*       SUNNY     82  72  69 CALM      30.10S
$$

VAZ088>098-261500-
SOUTHEAST VIRGINIA

CITY           SKY/WX    TMP DP  RH WIND       PRES   REMARKS
NORFOLK        MOSUNNY   82  71  69 SW6       30.07S
VIRGINIA BEACH PTSUNNY   87  72  60 SW8       30.07S
NORFOLK NAVAL  MOSUNNY   82  70  66 VRB6      30.09S
WEST POINT*    SUNNY     82  72  70 SW5       30.09S
SALUDA*        FAIR      82  75  81 NW5       30.07R
NEWPORT NEWS   MOSUNNY   83  72  69 W7        30.08R
LANGLEY AFB    MOSUNNY   83  72  70 SW5       30.07S
FORT EUSTIS    MOSUNNY   84  73  68 W2        30.06R
WILLIAMSBURG*  SUNNY     84  73  70 CALM      30.08F
HR EXEC AP*    FAIR      81  72  74 W6        30.10S
FRANKLIN*      SUNNY     81  71  70 SW5       30.09S
US460-WAKEFLD  MOSUNNY   84  72  67 NW5       30.08S
$$

VAZ020-022-025-037-045-261500-
WEST CENTRAL AND SOUTHWEST VIRGINIA

CITY           SKY/WX    TMP DP  RH WIND       PRES   REMARKS
STAUNTON*      SUNNY     79  71  76 CALM      30.17S
WAYNESBORO*    FAIR      82  70  66 W5        30.16S
HOT SPRINGS VA MOSUNNY   72  72 100 NW6       30.29R
LYNCHBURG      SUNNY     86  72  62 VRB5      30.14R
DANVILLE       SUNNY     85  73  67 NW7       30.11S
SOUTH BOSTON*  FAIR      85  75  71 NW5       30.10S
MARTINSVILLE   SUNNY     83  72  69 N5        30.17S
ROANOKE        SUNNY     85  71  63 NW8       30.17S
BLACKSBURG     SUNNY     78  72  82 W3        30.25S
DUBLIN*        SUNNY     80  71  72 N3        30.24R
MARION*        PTSUNNY   77  71  83 SW3       30.28S
HILLSVILLE*    SUNNY     76  70  82 N8        30.25R
RICHLANDS*     FAIR      74  71  91 CALM      30.27R
WISE*          PTSUNNY   79  70  73 NE3       30.28S
ABINGDON*      SUNNY     81  73  77 CALM      30.24R
$$

MDZ021>025-VAZ099-100-261500-
SOUTHERN MARYLAND AND THE DELMARVA PENINSULA

CITY           SKY/WX    TMP DP  RH WIND       PRES   REMARKS
PATUXENT RIVER MOSUNNY   85  74  69 NW9       30.06R
BAY BRIDGE APT SUNNY     84  77  79 W8        30.05S
LEONARDTOWN    SUNNY     86  73  66 NW5       30.08R
DOVER          SUNNY     85  80  84 W10       30.02S HX 100
GEORGETOWN     SUNNY     85  75  72 W6        30.05S
EASTON         NOT AVBL
CAMBRIDGE      SUNNY     82  73  74 NW6       30.05S
SALISBURY      SUNNY     84  76  76 W5        30.05S
OCEAN CITY     SUNNY     85  75  72 W7        30.05S
WALLOPS ISLAND PTSUNNY   85  70  60 W10       30.07R
ACCOMACK*      SUNNY     84  72  67 W8        30.07S
$$

NCZ012>017-030>032-261500-
NORTH CENTRAL AND EASTERN NORTH CAROLINA

CITY           SKY/WX    TMP DP  RH WIND       PRES   REMARKS
ROANOKE RAPIDS FAIR      81  72  74 CALM      30.09S
RALEIGH        MOSUNNY   85  72  65 VRB3      30.10S
ELIZABETH CITY CLOUDY    82  69  64 SW9       30.10S
AHOSKIE*       SUNNY     80  72  77 CALM      30.09S
EDENTON*       SUNNY     83  69  62 SW8       30.11R
CURRITUCK*       N/A     82  70  66 SW7       30.10S
KILL DEVIL HLS CLOUDY    84  75  74 W5        30.09S
MANTEO         PTSUNNY   82  68  63 W6        30.11S
CAPE HATTERAS  PTSUNNY   84  68  58 VRB5      30.11S
TARBORO*       FAIR      83  73  72 CALM      30.10S
GOLDSBORO      SUNNY     83  75  75 SW7       30.08F
WASHINGTON     SUNNY     82  70  68 SW7       30.11R
GREENVILLE     SUNNY     82  73  74 SW7       30.11S
NEW BERN       SUNNY     82  70  66 S5        30.12S
WILMINGTON     PTSUNNY   83  71  67 CALM      30.12R
$$

VAZ048-261500-
ELSEWHERE

CITY           SKY/WX    TMP DP  RH WIND       PRES   REMARKS
HARRISBURG PA  MOSUNNY   84  73  69 NW10      30.05S
BALTIMORE      MOSUNNY   87  72  60 VRB5      30.05S
ANNAPOLIS      SUNNY     87  75  67 N5        30.04F HX  96
ANDREWS AFB    SUNNY     89  73  59 NW5       30.06F HX  96
PHILADELPHIA   MOSUNNY   86  70  58 NW13      30.02S
HENDERSON NC   SUNNY     82  72  71 CALM      30.11R
GREENSBORO     MOSUNNY   87  72  60 N7        30.13S
ROCKY MOUNT    SUNNY     82  73  74 W3        30.09S
$$

VAZ100-261500-
MARINE

STATION/POSITION TIME  TEMP    WIND        PRES    WAVE   SWELL
                       AIR SEA DIR/SP/G            HT/PER HT/PER
                 (UTC) (F)     (DEG/KT/KT) (MB)    (FT/S) (FT/S)
BRANDYWINE LGT   1300   77     250/  9/ 10   N/A
CAPE MAY NJ      1300   78 75  230/  6/  7 1016.6F
LEWES DE         1300   82 73  270/  6/  9 1016.9F
OCEAN-CITY-INLET 1300   79 75  260/  8/  9 1018.0F
WACHAPREAGUE VA  1300   81 79  260/  5/  9 1018.0F
THOMAS POINT MD  1400   83 82  280/  6/  6 1018.9F
GOOSES REEF MD   1300   82 82  330/  2/  4 1018.2R   1/ 2
COVE POINT MD    1300   81     320/  7/ 11 1018.2R
SOLOMONS ISLAND  1300   82 83  310/  4/  7   N/A
BISHOPS HEAD MD  1300   80 80  260/  5/  7 1018.1R
PINEY POINT MD   1300          310/  6/  6   N/A
POTOMAC MD       1300   80 82  290/ 10/ 10 1016.9F   1/ 2
CAMBRIDGE MD     1300   81 83  250/  4/  5 1016.7F
LEWISETTA VA     1300   79 82  270/  7/  8 1017.5S
RAPPAHANNOCK LGT 1300          230/  8/ 10 1018.7F
STINGRAY PT      1300   79 82  190/  8/  8 1018.5S   1
YORK RVR RNG VA  1300   80     240/  4/  5 1017.8S
YORKTOWN VA      1300   78 82  240/  4/  6 1017.9R
JAMESTOWN VA     1300   77 84  260/  4/  6   N/A     0
DOMINION TERM VA 1300   78     260/  5/  6 1018.6R
KIPTOPEKE VA     1300      79  240/  8/ 11   N/A
CHES BAY BRIDGE  1300   78 79  210/  7/  9 1018.4R
CAPE HENRY VA    1300   78     200/  5/  6   N/A
WILLOUBY STN VA  1300   76     240/  9/ 10   N/A
CAPE HENRY BUOY  1312      77                N/A     2/ 8
1ST LANDING BUOY 1300   78 78  250/  6/  8 1018.4R   1/ 3
CAPE CHARLES BUO 1326      77                N/A     2/ 8
OFFSHORE WE BUOY 1321      80                N/A     2/ 8
64NM E OF VA BCH 1350   79 80  220/ 10/ 12 1018.9F   3/ 8   2/ 8
DUCK PIER NC     1300   79 78  230/ 10/ 13 1018.7F
44100 DUCK FRF   1305      78                N/A     2/ 8
44056 DUCK FRF   1311      79                N/A     2/ 8
OREGON INLET NC  1300   80 81  240/  6/  9 1019.4F
HATTERAS NC      1300   81 81  290/  5/  5 1019.2F
DIAMOND SHLS NC  1350   82 84  320/  4/  6 1019.9R   3/ 8   2/ 8
CAPE LOOKOUT NC  1400   82     330/  4/  5 1019.3R
$$



USA.gov is the U.S. government's official web portal to all federal, state and local government web resources and services.